795  
ASUS41 KPHI 231913  
RWRPHI  
 
REGIONAL WEATHER ROUNDUP  
NATIONAL WEATHER SERVICE MOUNT HOLLY NJ  
200 PM EST SUN FEB 23 2020  
 
NOTE: "FAIR" INDICATES FEW OR NO CLOUDS BELOW 12,000 FEET WITH NO  
SIGNIFICANT WEATHER AND/OR S TO VISIBILITY
.  
 
* = STATION DOES NOT REPORT PRECIPITATION (E.G. RAIN, SNOW, ETC.)  
OR FOG.
 
 
NJZ015>026-232000-  
SOUTHERN NEW JERSEY  
 
CITY SKY/WX TMP DP RH WIND PRES REMARKS
 
POMONA FAIR 53 14 21 S13 30.17F  
WILDWOOD* FAIR 53 13 20 SE9 30.20F  
MILLVILLE FAIR 53 8 16 VRB7 30.17F  
WRIGHTSTOWN FAIR 55 10 16 S9 30.14F  
MOUNT HOLLY FAIR 56 10 16 S8 30.15F  
TRENTON FAIR 54 11 18 SW7 30.14F  
 

 
NJZ001>014-232000-  
NORTHERN NEW JERSEY  
 
CITY SKY/WX TMP DP RH WIND PRES REMARKS
 
SUSSEX FAIR 53 14 21 SW9 30.09F  
ANDOVER* N/A 52 13 21 S9 30.10F  
MORRISTOWN N/A 54 12 19 W10G17 30.12F  
NEWARK FAIR 57 9 14 SW13 30.12F  
TETERBORO FAIR 55 13 18 W10 30.11F  
CALDWELL FAIR 55 9 16 VRB5G17 30.12F  
SOMERVILLE FAIR 56 13 18 VRB5 30.11F  
ALLAIRE* FAIR 55 8 15 SW12 30.16F  
TOMS RIVER* N/A 57 10 15 SW7 30.16F  
 

 
PAZ043-044-047-054-055-060>062-066>071-232000-  
EASTERN PENNSYLVANIA  
 
CITY SKY/WX TMP DP RH WIND PRES REMARKS
 
PHILADELPHIA FAIR 54 9 16 W10 30.16F  
NORTH PHILA FAIR 56 12 17 SW8 30.16F  
BLUE BELL* FAIR 55 14 19 W9 30.14F  
DOYLESTOWN FAIR 55 10 16 SW8 30.13F  
QUAKERTOWN* SUNNY 54 10 17 S9 30.13  
PERKASIE* FAIR 54 10 17 SW7 30.13F  
POTTSTOWN FAIR 53 10 18 SW10 30.15F  
LANCASTER FAIR 56 12 17 SW8 30.13F  
COATESVILLE FAIR 52 10 19 VRB6G13 30.15F  
WEST CHESTER FAIR 54 10 17 SW9 30.15F  
READING FAIR 55 13 18 SW10 30.12F  
ALLENTOWN FAIR 56 9 15 SW13 30.12F  
QN CITY/ALNTWN FAIR 54 14 20 SW7 30.14F  
MOUNT POCONO FAIR 48 6 18 SW16 30.06F  
HAZLETON FAIR 52 5 15 W3 30.11F  
WILKES BARRE FAIR 52 10 18 SW10G18 30.08F  
 

 
DEZALL-MDZ008-012-015-019-020-232000-  
DELAWARE AND EASTERN MARYLAND  
 
CITY SKY/WX TMP DP RH WIND PRES REMARKS
 
WILMINGTON FAIR 57 13 17 SE7 30.16F  
DOVER FAIR 54 12 19 E10 30.17F  
CHESWOLD CLEAR 57 7 13 SW9 30.17F  
GEORGETOWN FAIR 59 19 21 SE8 30.17F  
EASTON SUNNY 57 9 14 S5 30.21F  
STEVENSVILLE FAIR 54 19 26 S3 30.18F  
ABERDEEN FAIR 56 15 20 SW9 30.16F  
PATUXENT FAIR 52 22 30 SE9 30.18  
OCEAN CITY FAIR 48 26 42 SE6 30.20F  
WALLOPS ISLAND FAIR 52 30 43 S8 30.20F  
CAMBRIDGE SUNNY 57 14 18 S8 30.18F  
SALISBURY FAIR 58 19 22 SE3 30.16F  
 

 
PAZ001-021-NYZ056-072-MDZ011-DCZ001-232000-  
OTHER NEARBY LOCATIONS  
 
CITY SKY/WX TMP DP RH WIND PRES REMARKS
 
HARRISBURG FAIR 56 14 19 S5 30.11F  
STATE COLLEGE SUNNY 54 9 16 SW13G20 30.07F  
WILLIAMSPORT FAIR 53 14 21 NE3 30.08F  
BINGHAMTON FAIR 42 13 30 W10 30.04F  
NEW YORK CITY FAIR 54 10 17 VRB7G18 30.14F  
BALTIMORE FAIR 58 8 13 S7 30.15F  
WASHINGTON DC FAIR 57 16 20 S9 30.16F  
 

 
 
 
CLICK HERE TO GO TO PREVIOUS BULLETINS.

The Nexlab PA Page
The Nexlab NJ Page
The Nexlab DE Page
The Nexlab MD Page Main Text Page